SB KEPS @ AMSAT $ORB11209.N 2Line Orbital Elements 11209.AMSAT
HR AMSAT ORBITAL ELEMENTS FOR AMATEUR SATELLITES IN NASA FORMAT FROM WA5QGD FORT WORTH,TX July 28, 2011 Send Subscribe/unsubscribe to KEPS at http://www.amsat.org/mailman/listinfo/keps BID: ORB11209.N
DECODE 2-LINE ELSETS WITH THE FOLLOWING KEY: 1 AAAAAU 00 0 0 BBBBB.BBBBBBBB .CCCCCCCC 00000-0 00000-0 0 DDDZ 2 AAAAA EEE.EEEE FFF.FFFF GGGGGGG HHH.HHHH III.IIII JJ.JJJJJJJJKKKKKZ KEY: A-CATALOGNUM B-EPOCHTIME C-DECAY D-ELSETNUM E-INCLINATION F-RAAN G-ECCENTRICITY H-ARGPERIGEE I-MNANOM J-MNMOTION K-ORBITNUM Z-CHECKSUM
TO ALL RADIO AMATEURS BT
AO-07 1 07530U 74089B 11209.57539779 -.00000027 00000-0 10000-3 0 1400 2 07530 101.3933 214.4843 0011634 197.2179 162.8496 12.53583236679370 FO-29 1 24278U 96046B 11209.83847830 -.00000050 00000-0 -16947-4 0 6245 2 24278 098.5514 348.3588 0351007 149.1783 213.0490 13.52963599738093 SO-33 1 25509U 98061B 11209.74724569 .00000356 00000-0 56215-4 0 204 2 25509 031.4358 009.2535 0354444 245.0811 111.2655 14.28434072666224 RS-22 1 27939U 03042A 11209.65237869 .00000217 00000-0 50304-4 0 4854 2 27939 097.8427 061.6609 0012785 210.1378 149.9087 14.63615975418404 VO-52 1 28650U 05017B 11209.61554687 .00000436 00000-0 60861-4 0 8570 2 28650 097.6399 250.8878 0027530 028.2872 331.9850 14.82124524336880 SO-67 1 35870U 09049F 11209.80369753 .00001067 00000-0 51246-4 0 716 2 35870 097.2785 251.7739 0001056 188.8425 282.9937 15.20905423103268 HO-68 1 36122U 09072B 11209.73898033 -.00000044 00000-0 00000 0 0 5989 2 36122 100.4125 269.9162 0007746 128.5180 231.6631 13.16287400 77708 UO-11 1 14781U 84021B 11209.78601988 .00000058 00000-0 14622-4 0 6120 2 14781 098.0031 266.3599 0009115 012.3368 347.8061 14.80003939471944 AO-16 1 20439U 90005D 11208.89957283 .00000063 00000-0 39038-4 0 2422 2 20439 098.3872 157.1617 0011854 045.5761 314.6388 14.31930697123442 LO-19 1 20442U 90005G 11208.90281589 .00000030 00000-0 26636-4 0 01734 2 20442 098.3500 161.3608 0012586 039.3181 320.8916 14.32155195123620 AO-27 1 22825U 93061C 11208.96134221 .00000060 00000-0 40538-4 0 08762 2 22825 098.5334 152.5779 0008765 150.5828 209.5845 14.29355894930010 IO-26 1 22826U 93061D 11208.95331037 .00000023 00000-0 25818-4 0 06206 2 22826 098.5269 153.0315 0009134 144.3533 215.8259 14.29618766930137 GO-32 1 25397U 98043D 11209.60224501 -.00000067 00000-0 -11547-4 0 5390 2 25397 098.3284 199.9538 0001780 123.7573 236.3797 14.23213623677857 NO-44 1 26931U 01043C 11209.66565992 .00000117 00000-0 77909-4 0 8118 2 26931 067.0505 236.6474 0006157 256.4074 103.6378 14.29670120512856 SO-50 1 27607U 02058C 11208.49510150 .00000163 00000-0 46819-4 0 05262 2 27607 064.5567 205.1856 0076213 312.6787 046.7924 14.71777682462023 CO-55 1 27844U 03031E 11208.52840971 .00000091 00000-0 62091-4 0 1624 2 27844 098.7066 216.6436 0010755 081.0429 279.1967 14.20827920418642 CO-57 1 27848U 03031J 11208.54853173 .00000085 00000-0 59720-4 0 01143 2 27848 098.7134 215.8663 0010824 086.1006 274.1418 14.20605772418598 AO-51 1 28375U 04025K 11208.87676489 .00000051 00000-0 28439-4 0 00327 2 28375 098.1012 185.1884 0083752 307.5928 051.7683 14.40769651371927 CP3 1 31129U 07012N 11208.72407920 .00000277 00000-0 73464-4 0 09296 2 31129 097.8966 230.5923 0103404 055.6361 305.4512 14.52524015226723 CO-65 1 32785U 08021C 11209.60045644 .00000174 00000-0 28460-4 0 546 2 32785 097.8468 272.6968 0015705 044.3346 315.9132 14.82058730175679 PRISM 1 33493U 09002B 11209.68973041 .00000818 00000-0 11049-3 0 8134 2 33493 098.1291 338.9182 0018358 267.1623 092.7489 14.81803422135663 SOHLA-1 1 33496U 09002E 11208.96934832 .00000026 00000-0 12702-4 0 04889 2 33496 098.0836 318.3950 0006825 003.4058 356.7188 14.69637617134478 TISAT-1 1 36799U 10035E 11209.69901418 .00000601 00000-0 85271-4 0 865 2 36799 098.0985 278.3578 0016161 139.2646 220.9778 14.80634056 56453 STUDSAT 1 36801U 10035G 11208.82500573 .00001769 00000-0 23613-3 0 02241 2 36801 098.1056 277.3679 0014229 130.4129 229.8326 14.80808989056310 RAX 1 37223U 0 11152.36844328 .00000635 00000-0 96781-4 0 01738 2 37223 071.9713 073.6151 0021634 311.5989 048.3343 14.77415682028541 OOREOS 1 37224U 10062C 11153.29456974 .00000492 00000-0 77478-4 0 01796 2 37224 071.9726 071.8135 0020315 307.7637 052.1684 14.77036357028673 FO-69 1 37227U 0 11208.50244384 .00000172 00000-0 32602-4 0 00924 2 37227 071.9704 310.3714 0017972 210.7452 149.2650 14.76616596015270 NANOSALD 1 37361U 0 11205.21512859 .00282048 00000-0 15825-1 0 02935 2 37361 071.9498 308.5773 0017142 072.4205 287.8812 15.11792873027692 FO-70 1 37380U 0 11208.45474935 .00000166 00000-0 31849-4 0 02270 2 37380 071.9736 310.6330 0018440 207.8270 152.1907 14.76381866036807 NOAA-10 1 16969U 86073A 11208.72420676 -.00000086 00000-0 -17182-4 0 05817 2 16969 098.6175 237.9572 0013105 105.7959 254.4637 14.27469508293438 NOAA-11 1 19531U 88089A 11208.86164493 .00000267 00000-0 16025-3 0 05814 2 19531 098.7516 295.5554 0011976 073.5117 286.7365 14.14921605178501 NOAA-12 1 21263U 91032A 11208.93114130 .00000054 00000-0 41645-4 0 00920 2 21263 098.7508 226.7034 0013436 068.9469 291.3146 14.25727289050217 MET-3/5 1 21655U 91056A 11208.85305792 .00000051 00000-0 10000-3 0 1689 2 21655 082.5563 022.0359 0014618 058.4444 301.8116 13.17027408959073 MET-2/21 1 22782U 93055A 11208.75157120 -.00000111 00000-0 -11322-3 0 01611 2 22782 082.5493 290.6978 0022210 349.3934 010.6739 13.83660428904164 OKEAN-4 1 23317U 94066A 11208.91501376 .00000283 00000-0 31727-4 0 06876 2 23317 082.5407 335.1036 0021765 349.6474 010.4288 14.83112543906586 NOAA-14 1 23455U 94089A 11208.94052980 -.00000030 00000-0 74734-5 0 05808 2 23455 098.8503 291.1698 0009492 159.1106 201.0452 14.13825862854839 NOAA-15 1 25338U 98030A 11208.75151834 .00000009 00000-0 22728-4 0 08990 2 25338 098.6570 194.3428 0010373 340.2987 019.7758 14.24935155686507 RESURS 1 25394U 98043A 11208.92458661 -.00000046 00000-0 -24262-5 0 08644 2 25394 098.3021 209.7062 0002297 093.9787 266.1657 14.24235221678108 FENGYUN1 1 25730U 99025A 11208.87056271 .00000768 00000-0 46984-3 0 03966 2 25730 098.8189 169.1736 0022084 197.9011 162.1400 14.08707561628794 OKEAN-0 1 25860U 99039A 11208.96538036 .00000170 00000-0 33463-4 0 03730 2 25860 097.8879 174.2960 0000771 104.8363 255.2927 14.73808709646667 NOAA-16 1 26536U 00055A 11208.73282136 -.00000115 00000-0 -36953-4 0 03810 2 26536 099.1384 240.0942 0009702 279.6302 080.3777 14.12631932559087 NOAA-17 1 27453U 02032A 11208.71083474 .00000199 00000-0 10393-3 0 03671 2 27453 098.3770 246.5558 0012229 035.3724 324.8270 14.24295942472429 NOAA-18 1 28654U 05018A 11208.71792371 .00000139 00000-0 10127-3 0 08477 2 28654 098.9969 159.9691 0014422 354.8662 005.2360 14.11495462318649 NOAA-19 1 33591U 09005A 11208.72409776 .00000052 00000-0 53266-4 0 00386 2 33591 098.8265 148.1999 0013343 219.6498 140.3688 14.11187660127101 HUBBLE 1 20580U 90037B 11208.86612112 .00000721 00000-0 41789-4 0 8063 2 20580 028.4694 110.7059 0003629 194.0668 165.9800 15.01434462965770 ISS 1 25544U 98067A 11209.79583769 .00004887 00000-0 64929-4 0 7930 2 25544 051.6416 311.2921 0011950 016.6266 126.9231 15.60217330727409 CO-58 1 28895U 05043F 11208.63397388 .00000215 00000-0 53921-4 0 09344 2 28895 097.9598 083.4487 0019020 093.9043 266.4336 14.60137896306144 FALCON 1 30776U 07006E 11209.84466032 .00001276 00000-0 91561-4 0 1378 2 30776 035.4331 093.6543 0000932 023.7106 336.3633 15.04779051241325 MAST 1 31126U 07012K 11208.91949702 .00000296 00000-0 76510-4 0 02203 2 31126 097.8938 233.8403 0095537 044.3034 316.5779 14.53777165227004 CAPE1 1 31130U 07012P 11209.49477960 .00000272 00000-0 72598-4 0 2345 2 31130 097.8988 231.0892 0103283 053.3574 307.7068 14.52429010226636 COMPASS 1 32787U 08021E 11209.65319465 .00000296 00000-0 43397-4 0 505 2 32787 097.8453 272.6939 0016615 043.3728 316.8795 14.82510222175705 AAUSAT2 1 32788U 08021F 11208.66680521 .00000277 00000-0 40769-4 0 00420 2 32788 097.8456 271.9632 0016043 048.7169 311.5456 14.82699543175579 DO-64 1 32789U 08021G 11208.73031391 .00000753 00000-0 98447-4 0 00586 2 32789 097.8553 273.1088 0016217 045.7981 314.4560 14.83216409175596 CO-66 1 32791U 08021J 11208.73359020 .00000423 00000-0 59567-4 0 00451 2 32791 097.8447 271.7187 0017000 046.3449 313.9166 14.82187617175517 RS-30 1 32953U 08025A 11209.76018471 .00000010 00000-0 00000 0 0 9433 2 32953 082.5040 136.8834 0018066 300.4007 059.5289 12.43014387144258 TACSAT-3 1 35001U 09028A 11208.65803414 .00012048 00000-0 21080-3 0 6537 2 35001 040.4538 286.7596 0020380 153.9799 206.2047 15.50143125123367 PHARMSAT 1 35002U 09028B 11209.60531062 .00008886 00000-0 15987-3 0 6096 2 35002 040.4702 279.0066 0022210 169.0008 191.1300 15.49547655123530 HAWKSAT1 1 35003U 09028C 11209.41493037 .00063139 00000-0 47912-3 0 7002 2 35003 040.4522 243.8447 0016395 185.8379 174.2241 15.71188686123904 CP6 1 35004U 09028D 11209.45257431 .00145612 00000-0 64638-3 0 7059 2 35004 040.4505 231.2913 0014903 181.7561 178.3218 15.82936479124033 METEOR-M 1 35865U 09049A 11209.74072731 .00000176 00000-0 10000-3 0 5885 2 35865 098.7030 264.3249 0001811 290.2074 069.8878 14.21840660 96497 RS-38 1 35869U 09049E 11209.66529945 .00000177 00000-0 10000-3 0 5807 2 35869 098.7001 264.2842 0003734 277.3196 082.7529 14.22017303 96492 /EX
participants (1)
-
Ray Hoad